Weather Roundup
Issued by NWS Corpus Christi, TX

Home | Current Version | Previous Version | Text Only | Print | Product List | Glossary On
Versions: 1 2 3 4 5 6 7 8 9 10 11 12 13 14 15 16 17 18 19 20 21 22 23 24 25 26 27 28 29 30 31 32 33 34 35 36 37 38 39 40 41 42 43 44 45 46 47 48 49 50
000
ASUS44 KCRP 271110
HRRCRP

SOUTH TEXAS REGIONAL WEATHER ROUNDUP
NATIONAL WEATHER SERVICE CORPUS CHRISTI TX
600 AM CDT THU APR 27 2017


TXZ229>244-271200-
...CORPUS CHRISTI AREA OBSERVATIONS...

CITY           SKY/WX    TMP DP  RH WIND       PRES   REMARKS
CORPUS CHRISTI CLEAR     66  52  60 NE20G25   29.77R
NAS CORPUS CHR CLEAR     70  57  63 NE21      29.76S
ROCKPORT       CLEAR     66  50  56 NE16      29.77S
ALICE          CLEAR     60  50  69 NE7       29.78R
ORANGE GROVE   CLEAR     60  51  72 E7        29.79R
FALFURRIAS     CLEAR     63  52  67 N6        29.75S
$$

...VICTORIA AREA OBSERVATIONS...

CITY           SKY/WX    TMP DP  RH WIND       PRES   REMARKS
VICTORIA       CLEAR     57  50  77 NE8       29.78F
BEEVILLE       FAIR      57  51  80 E6        29.78S
PLEASANTON     CLEAR     55  46  73 CALM      29.81R
SAN ANTONIO    CLEAR     55  46  71 E6        29.80R
$$

...LAREDO AREA OBSERVATIONS...

CITY           SKY/WX    TMP DP  RH WIND       PRES   REMARKS
LAREDO         CLEAR     64  49  57 SE5       29.81R
COTULLA        CLEAR     59  46  62 E6        29.79R
DEL RIO        CLEAR     56  43  61 SE7       29.79R
MCALLEN        CLEAR     73  63  70 NE7       29.76R
HEBBRONVILLE   CLEAR     61  49  64 CALM      29.80R
$$

...OTHER TEXAS OBSERVATIONS...

CITY           SKY/WX    TMP DP  RH WIND       PRES   REMARKS
BROWNSVILLE    CLEAR     75  69  81 NE10      29.73S
HOUSTON        CLEAR     55  49  80 NE6       29.81R
COL. STATION   CLEAR     52  48  86 SE6       29.80R
AUSTIN         PTCLDY    46  44  93 CALM      29.80R
WACO           CLEAR     49  47  93 S6        29.78R
FORT WORTH     MOCLDY    49  47  93 CALM      29.74R
WICHITA FALLS  PTCLDY    42  40  92 S6        29.74R
LUBBOCK        PTCLDY    44  35  70 E5        29.73R
EL PASO        PTCLDY    64  22  20 E6        29.77F
$$

...MARINE OBSERVATIONS...

STATION/POSITION TIME  SKY/WX   TEMP    WIND        PRES    VSBY  WAVE   SWELL
                                AIR SEA DIR/SP/G                  HT/PER HT/PER
                 (UTC)          (F)     (DEG/KT/KT) (MB)    (MI)  (FT/S) (FT/S)
PORT ARANSAS     1000            70 78   30/ 25/ 27 1007.1R
BUOY 90 E PORT A 1050            70 76   30/ 19/ 21 1007.7R         7/ 7
BUOY 45 SE BAFFI 0950            75      40/ 23/ 27 1005.0          7/ 6
BUOY 200 E PT IS 1050            78 79  360/  4/  6 1006.6R         5/ 7   5/ 7
BUOY 15 E GALVES 1050            62 75  360/ 17/ 21 1008.6R         4/ 4   2/ 7
$$



USA.gov is the U.S. government's official web portal to all federal, state and local government web resources and services.